Location: Fort Wayne
(41.1310°N, 85.1290°W)
Time: 10:49:07
(UTC-05:00)

Meteor 2-10 Rocket - Visible Passes

Search period start: 25 February 2017 00:00
Search period end: 07 March 2017 00:00
Orbit: 734 x 885 km, 81.2° (Epoch: 24 February)

Date Brightness Start Highest point End Pass type
(mag) Time Alt. Az. Time Alt. Az. Time Alt. Az.
25 Feb 6.2 03:59:55 10° ESE 04:02:30 14° E 04:05:07 10° NE visible
25 Feb 3.4 05:40:23 19° SSW 05:43:56 59° WNW 05:48:57 10° N visible
26 Feb 3.3 05:17:38 38° SSW 05:19:37 85° W 05:24:44 10° N visible
27 Feb 3.6 04:54:31 56° SSE 04:55:22 67° E 05:00:25 10° NNE visible
27 Feb 5.1 06:35:44 11° W 06:37:59 14° WNW 06:40:31 10° NW visible
28 Feb 4.3 04:31:12 46° E 04:31:12 46° E 04:36:00 10° NNE visible
28 Feb 4.7 06:12:23 18° W 06:13:28 19° WNW 06:17:06 10° NNW visible
01 Mar 5.1 04:07:44 30° ENE 04:07:44 30° ENE 04:11:27 10° NNE visible
01 Mar 4.3 05:48:55 27° WNW 05:49:00 27° WNW 05:53:19 10° NNW visible
02 Mar 5.8 03:44:09 20° ENE 03:44:09 20° ENE 03:46:44 10° NE visible
02 Mar 4.1 05:25:20 36° NW 05:25:20 36° NW 05:29:21 10° N visible
03 Mar 6.3 03:20:30 13° ENE 03:20:30 13° ENE 03:21:44 10° NE visible
03 Mar 4.1 05:01:39 40° NNW 05:01:39 40° NNW 05:05:16 10° N visible
04 Mar 4.5 04:37:56 37° N 04:37:56 37° N 04:41:04 10° N visible
05 Mar 5.0 04:14:09 30° NNE 04:14:09 30° NNE 04:16:47 10° NNE visible
05 Mar 5.4 05:55:18 12° NW 05:55:18 12° NW 05:56:38 10° NW visible
06 Mar 5.5 03:50:19 23° NNE 03:50:19 23° NNE 03:52:23 10° NNE visible
06 Mar 5.3 05:31:28 16° NW 05:31:28 16° NW 05:33:21 10° NNW visible
